STARLINK-4598, 53630

Orbit data source: Space-Track

STARLINK-4598, 53630 is a payload satellite owned by SpaceX/Seattle (US) in LEO that was launched on Sun, 28 Aug 2022 UTC via an FALCON 9 launch vehicle from the Air Force Eastern Test Range (AFETR). Payload-class satellites include a variety of spacecraft equipped with specific instruments for various scientific and technological missions. These include communications satellites like Starlink; space stations such as the ISS; scientific satellites like the Hubble; Earth observation satellites from companies like Planet Labs, Umbra, and HawkEye 360; GPS; miniature CubeSats for education and research; and military/defense satellites.

Loading next visibility...
Identifier
53630, 2022-104AU
Orbit
LEO
Country
Flag of USUS
Related business
Manufacturer
SpaceX/Seattle
Mission
Operational Commercial Communications
Bus & Motor
STARLINK, Unknown motor
Mass
300 kg wet, ~290 kg dry
Launch date (UTC)
2022-08-28 (3 years ago)
Launch vehicle
FALCON 9
Launch site
Air Force Eastern Test Range (AFETR)
Object type
Payload
Rocket body
Debris
Shape & HBR
Box + 1 Pan, 10.1 m
Radar Cross Section
13.562 m², Large (>1 m²)

Expand to show TLE details & history
Last TLE update: 22 hours ago

TLE from 22 hours ago
0 STARLINK-4598
1 53630U 22104AU  25347.04374810 -.00000817  00000-0 -33268-4 0  9998
2 53630  53.2182 253.1632 0001308  92.1308 267.9834 15.08829169182983
Epoch: 2025-12-13T01:02Z
TLE epoch observation values (Epoch: 2025-12-13T01:02:59.835Z)
Latitude
-0.00003°
Longitude
155.43718°
Altitude
540.706 km
Speed
7.593 km/s
True Right ascension
16h 52m 39s
True Declination
0° 00' 00"
Sunlit
Object was in daylight at epoch
Visualization orbit readout
Latitude
Unknown
Longitude
Unknown
Altitude
Unknown
Speed
Unknown
Apparent Right ascension
Unknown
Apparent Declination
Unknown
Sunlit
N/A
Visualization observer readout
Local Sidereal Time
21:45:32
Azimuth
Unknown
Elevation
Unknown
Doppler factor
Unknown
Orbital elements
Apogee altitude
540.926 km
Perigee altitude
539.116 km
Semi-major axis
6,918.158 km
Eccentricity
0.00013
Inclination
53.2182°
RAAN
253.1632°
Arg. of periapsis
92.1308°
True anomaly
267.96842°
Mean anomaly
267.9834°
Eccentric anomaly
267.97591°
Mean motion
3.77188 °/min
Orbital period
95.44 mins
BSTAR
-0.000033268
Loading maneuver chart data...
Computing Atmospheric mass density...
Loading historical data...
Loading historical data...
Loading historical data...
Loading historical data...
Loading historical data...
Loading historical data...
Loading historical data...

Documentation

Showing up to 5 results
|